Vlieland, Netherlands

7:07 AM CET on March 23, 2017 (GMT +0100)
Vlieland

Weather History for EHVL - October, 2012

Change the Weather History Date:

Monday, October 29, 2012

  Actual Average Record
Temperature  
Mean Temperature 50 °F -  
Max Temperature 55 °F 47 °F 60 °F (2005)
Min Temperature 44 °F 42 °F 35 °F (1997)
Degree Days  
Heating Degree Days 16    
Moisture  
Dew Point 45 °F    
Average Humidity 85    
Maximum Humidity 93    
Minimum Humidity 72    
Precipitation  
Precipitation 0.00 in - - ()
Sea Level Pressure  
Sea Level Pressure 29.70 in    
Wind  
Wind Speed 22 mph ()    
Max Wind Speed 30 mph    
Max Gust Speed -    
Visibility 5.8 miles    
Events Rain    
Averages and records for this station are not official NWS values.
T = Trace of Precipitation, MM = Missing Value Source: Averaged Metar Reports

Daily Weather History Graph

Daily Weather History Graph

Search for Another Location

Airport or City:

Trip Planner

Search our weather history database for the weather conditions in past years. The results will help you decide how hot, cold, wet, or windy it might be!

Date:

Astronomy

Oct. 29, 2012 Rise Set
Actual Time 7:33 AM CET 5:13 PM CET
Civil Twilight 6:57 AM CET 5:50 PM CET
Nautical Twilight 6:16 AM CET 6:30 PM CET
Astronomical Twilight 5:35 AM CET 7:10 PM CET
Moon 4:51 PM CET (10/29) 7:11 AM CET (10/29)
Length of Visible Light 10h 52m
Length of Day
9h 40m
Full, 100% of the Moon is Illuminated
Oct 29
Full
Oct 29
Full
Nov 7
Last Quarter
Nov 13
New
Nov 20
First Quarter

Hourly Weather History & Observations

Time (CET) Temp. Windchill Dew Point Humidity Pressure Visibility Wind Dir Wind Speed Gust Speed Precip Events Conditions
12:03 AM 44.6 °F 35.9 °F 41.0 °F 87% 29.80 in 3.7 mi South 23.0 mph - N/A Rain Light Rain
12:25 AM 44.6 °F 35.1 °F 41.0 °F 87% 29.80 in 6.2 mi South 27.6 mph - N/A Rain Light Rain
12:31 AM 44.6 °F 35.1 °F 41.0 °F 87% 29.80 in 4.3 mi South 27.6 mph - N/A Rain Light Rain
12:36 AM 44.6 °F 35.5 °F 41.0 °F 87% 29.80 in - South 25.3 mph - N/A Rain Light Rain Showers
12:41 AM 44.6 °F 35.7 °F 41.0 °F 87% 29.80 in 3.7 mi SSW 24.2 mph - N/A Rain Light Rain Showers
12:46 AM 44.6 °F 35.5 °F 41.0 °F 87% 29.80 in - SSW 25.3 mph - N/A Rain Light Rain Showers
12:49 AM 44.6 °F 35.3 °F 41.0 °F 87% 29.80 in 3.7 mi SSW 26.5 mph - N/A Rain Rain Showers
12:55 AM 44.6 °F 35.5 °F 41.0 °F 87% 29.80 in 3.7 mi SSW 25.3 mph - N/A Rain Light Rain Showers
1:18 AM 44.6 °F 35.9 °F 41.0 °F 87% 29.80 in 3.1 mi South 23.0 mph - N/A Rain Light Rain Showers
1:25 AM 44.6 °F 35.9 °F 42.8 °F 93% 29.80 in 6.2 mi South 23.0 mph - N/A Rain Light Rain
1:38 AM 44.6 °F 36.1 °F 42.8 °F 93% 29.77 in 6.2 mi South 21.9 mph - N/A Rain Light Rain
1:45 AM 44.6 °F 36.1 °F 42.8 °F 93% 29.77 in 3.1 mi South 21.9 mph - N/A Rain Light Rain
1:55 AM 44.6 °F 35.7 °F 42.8 °F 93% 29.80 in 3.1 mi SSW 24.2 mph - N/A Rain Rain
2:08 AM 46.4 °F 39.0 °F 44.6 °F 93% 29.77 in 5.6 mi SSW 19.6 mph - N/A Rain Light Rain
2:14 AM 46.4 °F 38.7 °F 44.6 °F 93% 29.77 in 6.2 mi SW 20.7 mph - N/A Rain Light Rain
2:25 AM 46.4 °F 38.3 °F 44.6 °F 93% 29.77 in 6.2 mi WSW 23.0 mph - N/A Rain Light Rain
2:46 AM 48.2 °F - 46.4 °F 93% 29.77 in 6.2 mi WSW 21.9 mph - N/A Rain Drizzle
2:55 AM 48.2 °F - 46.4 °F 93% 29.77 in 6.2 mi WSW 20.7 mph - N/A   Drizzle
3:05 AM 48.2 °F - 46.4 °F 93% 29.77 in 6.2 mi SW 21.9 mph - N/A   Light Drizzle
3:06 AM 48.2 °F - 46.4 °F 93% 29.77 in 6.2 mi SW 21.9 mph - N/A   Drizzle
3:21 AM 46.4 °F 39.0 °F 44.6 °F 93% 29.77 in 4.3 mi WSW 19.6 mph - N/A   Drizzle
3:25 AM 46.4 °F 38.7 °F 44.6 °F 93% 29.77 in 4.3 mi WSW 20.7 mph - N/A Rain Light Rain
3:36 AM 46.4 °F 38.7 °F 44.6 °F 93% 29.77 in - WSW 20.7 mph - N/A Rain Light Rain Showers
3:41 AM 46.4 °F 38.7 °F 44.6 °F 93% 29.77 in 3.1 mi WSW 20.7 mph - N/A Rain Light Rain Showers
3:48 AM 48.2 °F - 46.4 °F 93% 29.77 in - WSW 23.0 mph - N/A Rain Light Rain Showers
3:55 AM 48.2 °F - 46.4 °F 93% 29.77 in 3.7 mi WSW 20.7 mph - N/A Rain Light Rain Showers
4:08 AM 48.2 °F - 46.4 °F 93% 29.74 in 6.2 mi WSW 20.7 mph - N/A   Light Drizzle
4:14 AM 48.2 °F - 46.4 °F 93% 29.74 in 6.2 mi WSW 25.3 mph - N/A   Mostly Cloudy
4:20 AM 48.2 °F - 46.4 °F 93% 29.74 in 6.2 mi WSW 25.3 mph - N/A   Light Drizzle
4:25 AM 50.0 °F - 46.4 °F 87% 29.74 in 6.2 mi WSW 26.5 mph - N/A   Light Drizzle
4:41 AM 48.2 °F - 46.4 °F 93% 29.74 in 6.2 mi WSW 26.5 mph - N/A   Mostly Cloudy
4:42 AM 50.0 °F - 46.4 °F 87% 29.74 in 6.2 mi WSW 26.5 mph - N/A   Mostly Cloudy
4:49 AM 50.0 °F - 46.4 °F 87% 29.74 in 6.2 mi WSW 26.5 mph - N/A   Mostly Cloudy
4:55 AM 50.0 °F - 44.6 °F 82% 29.74 in 6.2 mi WSW 24.2 mph - N/A   Mostly Cloudy
5:02 AM 50.0 °F - 44.6 °F 82% 29.74 in 6.2 mi WSW 25.3 mph - N/A   Mostly Cloudy
5:09 AM 48.2 °F - 44.6 °F 87% 29.74 in 6.2 mi WSW 24.2 mph - N/A   Drizzle
5:16 AM 50.0 °F - 44.6 °F 82% 29.74 in 6.2 mi WSW 24.2 mph - N/A   Mostly Cloudy
5:20 AM 50.0 °F - 46.4 °F 87% 29.74 in 6.2 mi WSW 24.2 mph - N/A   Mostly Cloudy
5:25 AM 50.0 °F - 44.6 °F 82% 29.74 in 6.2 mi WSW 24.2 mph - N/A   Mostly Cloudy
5:29 AM 50.0 °F - 46.4 °F 87% 29.74 in 6.2 mi WSW 24.2 mph - N/A   Overcast
5:35 AM 48.2 °F - 44.6 °F 87% 29.74 in 6.2 mi WSW 24.2 mph - N/A Rain Light Rain
5:36 AM 50.0 °F - 46.4 °F 87% 29.74 in 6.2 mi WSW 24.2 mph - N/A   Light Drizzle
5:50 AM 48.2 °F - 46.4 °F 93% 29.74 in 6.2 mi WSW 24.2 mph - N/A   Light Drizzle
5:55 AM 48.2 °F - 46.4 °F 93% 29.74 in 5.6 mi WSW 25.3 mph - N/A   Drizzle
6:08 AM 50.0 °F - 46.4 °F 87% 29.74 in 6.2 mi WSW 23.0 mph - N/A   Mostly Cloudy
6:14 AM 48.2 °F - 44.6 °F 87% 29.74 in 4.3 mi WSW 23.0 mph - N/A Rain Light Rain
6:15 AM 48.2 °F - 44.6 °F 87% 29.74 in 5.6 mi WSW 24.2 mph - N/A Rain Rain
6:25 AM 48.2 °F - 46.4 °F 93% 29.74 in 4.3 mi WSW 25.3 mph - N/A   Drizzle
6:29 AM 48.2 °F - 46.4 °F 93% 29.74 in 5.6 mi WSW 24.2 mph - N/A   Drizzle
6:32 AM 50.0 °F - 46.4 °F 87% 29.74 in 3.7 mi WSW 21.9 mph - N/A   Light Drizzle
6:36 AM 48.2 °F - 46.4 °F 93% 29.74 in 5.0 mi WSW 23.0 mph - N/A   Drizzle
6:43 AM 48.2 °F - 46.4 °F 93% 29.74 in 5.0 mi WSW 24.2 mph - N/A   Light Drizzle
6:49 AM 48.2 °F - 46.4 °F 93% 29.74 in 5.0 mi WSW 24.2 mph - N/A   Drizzle
6:55 AM 48.2 °F - 46.4 °F 93% 29.74 in 4.3 mi WSW 23.0 mph - N/A Rain Light Rain
7:02 AM 48.2 °F - 46.4 °F 93% 29.74 in 4.3 mi WSW 20.7 mph - N/A Rain Light Rain
7:03 AM 48.2 °F - 46.4 °F 93% 29.74 in 5.0 mi WSW 21.9 mph - N/A Rain Rain
7:16 AM 48.2 °F - 46.4 °F 93% 29.74 in 6.2 mi WSW 23.0 mph - N/A   Light Drizzle
7:25 AM 50.0 °F - 46.4 °F 87% 29.74 in 6.2 mi WSW 24.2 mph - N/A Rain Light Rain
7:26 AM 50.0 °F - 46.4 °F 87% 29.74 in 6.2 mi West 23.0 mph - N/A   Mostly Cloudy
7:39 AM 50.0 °F - 46.4 °F 87% 29.74 in 6.2 mi West 23.0 mph - N/A   Mostly Cloudy
7:40 AM 50.0 °F - 46.4 °F 87% 29.74 in 6.2 mi West 21.9 mph - N/A   Mostly Cloudy
7:47 AM 50.0 °F - 46.4 °F 87% 29.74 in 3.7 mi West 23.0 mph - N/A Rain Light Rain
7:55 AM 48.2 °F - 44.6 °F 87% 29.74 in 3.1 mi West 20.7 mph - N/A Rain Light Rain
7:59 AM 48.2 °F - 46.4 °F 93% 29.74 in 6.2 mi West 19.6 mph - N/A Rain Light Rain
8:04 AM 50.0 °F - 46.4 °F 87% 29.74 in 6.2 mi West 20.7 mph - N/A   Light Drizzle
8:08 AM 50.0 °F - 46.4 °F 87% 29.74 in 6.2 mi WSW 21.9 mph - N/A   Mostly Cloudy
8:21 AM 50.0 °F - 46.4 °F 87% 29.74 in 6.2 mi West 23.0 mph - N/A   Overcast
8:25 AM 50.0 °F - 46.4 °F 87% 29.74 in 6.2 mi West 24.2 mph - N/A   Overcast
8:55 AM 50.0 °F - 44.6 °F 82% 29.74 in 6.2 mi West 23.0 mph - N/A   Overcast
9:00 AM 50.0 °F - 44.6 °F 82% 29.74 in 6.2 mi WSW 24.2 mph - N/A   Mostly Cloudy
9:04 AM 50.0 °F - 44.6 °F 82% 29.74 in 6.2 mi WSW 24.2 mph - N/A   Mostly Cloudy
9:15 AM 51.8 °F - 44.6 °F 76% 29.74 in 6.2 mi WSW 24.2 mph - N/A   Mostly Cloudy
9:16 AM 51.8 °F - 44.6 °F 76% 29.74 in 6.2 mi WSW 24.2 mph - N/A   Mostly Cloudy
9:25 AM 51.8 °F - 44.6 °F 76% 29.74 in 6.2 mi WSW 25.3 mph - N/A   Mostly Cloudy
9:35 AM 51.8 °F - 44.6 °F 76% 29.74 in 6.2 mi WSW 24.2 mph - N/A   Overcast
9:41 AM 51.8 °F - 44.6 °F 76% 29.74 in 4.3 mi WSW 24.2 mph - N/A   Mostly Cloudy
9:42 AM 50.0 °F - 44.6 °F 82% 29.74 in 6.2 mi WSW 24.2 mph - N/A Rain Light Rain
9:55 AM 50.0 °F - 44.6 °F 82% 29.74 in 6.2 mi WSW 23.0 mph - N/A   Mostly Cloudy
9:56 AM 51.8 °F - 46.4 °F 82% 29.71 in 6.2 mi WSW 23.0 mph - N/A   Mostly Cloudy
10:06 AM 50.0 °F - 46.4 °F 87% 29.71 in 6.2 mi WSW 25.3 mph - N/A Rain Drizzle
10:11 AM 50.0 °F - 46.4 °F 87% 29.71 in 6.2 mi WSW 25.3 mph - N/A Rain Light Rain
10:18 AM 50.0 °F - 44.6 °F 82% 29.71 in 6.2 mi WSW 24.2 mph - N/A   Mostly Cloudy
10:25 AM 51.8 °F - 46.4 °F 82% 29.71 in 6.2 mi WSW 24.2 mph - N/A   Mostly Cloudy
10:36 AM 51.8 °F - 46.4 °F 82% 29.71 in 6.2 mi West 26.5 mph - N/A   Mostly Cloudy
10:42 AM 51.8 °F - 46.4 °F 82% 29.71 in 6.2 mi West 25.3 mph - N/A   Scattered Clouds
10:55 AM 51.8 °F - 46.4 °F 82% 29.71 in 6.2 mi WSW 25.3 mph - N/A   Partly Cloudy
11:03 AM 51.8 °F - 46.4 °F 82% 29.71 in 6.2 mi West 24.2 mph - N/A   Scattered Clouds
11:10 AM 51.8 °F - 46.4 °F 82% 29.71 in 6.2 mi WSW 24.2 mph - N/A   Scattered Clouds
11:15 AM 53.6 °F - 46.4 °F 77% 29.71 in 6.2 mi WSW 24.2 mph - N/A   Partly Cloudy
11:25 AM 53.6 °F - 46.4 °F 77% 29.71 in 6.2 mi WSW 24.2 mph - N/A   Partly Cloudy
11:29 AM 53.6 °F - 46.4 °F 77% 29.71 in 6.2 mi WSW 24.2 mph - N/A   Scattered Clouds
11:35 AM 53.6 °F - 46.4 °F 77% 29.71 in 6.2 mi WSW 24.2 mph - N/A   Mostly Cloudy
11:55 AM 51.8 °F - 46.4 °F 82% 29.71 in 6.2 mi WSW 23.0 mph - N/A   Scattered Clouds
12:25 PM 53.6 °F - 46.4 °F 77% 29.71 in 6.2 mi WSW 23.0 mph - N/A   Scattered Clouds
12:30 PM 55.4 °F - 46.4 °F 72% 29.71 in 6.2 mi WSW 23.0 mph - N/A   Scattered Clouds
12:33 PM 55.4 °F - 46.4 °F 72% 29.71 in 6.2 mi WSW 23.0 mph - N/A   Mostly Cloudy
12:36 PM 53.6 °F - 46.4 °F 77% 29.68 in 6.2 mi WSW 24.2 mph - N/A   Mostly Cloudy
12:39 PM 53.6 °F - 44.6 °F 72% 29.68 in 6.2 mi WSW 24.2 mph - N/A   Mostly Cloudy
12:51 PM 53.6 °F - 46.4 °F 77% 29.68 in 6.2 mi WSW 24.2 mph - N/A   Mostly Cloudy
12:55 PM 51.8 °F - 46.4 °F 82% 29.68 in 6.2 mi WSW 23.0 mph - N/A   Mostly Cloudy
1:02 PM 51.8 °F - 46.4 °F 82% 29.68 in 6.2 mi WSW 24.2 mph - N/A   Mostly Cloudy
1:11 PM 51.8 °F - 46.4 °F 82% 29.68 in 6.2 mi WSW 21.9 mph - N/A   Mostly Cloudy
1:17 PM 51.8 °F - 46.4 °F 82% 29.68 in 6.2 mi WSW 25.3 mph - N/A Rain Light Rain
1:25 PM 51.8 °F - 46.4 °F 82% 29.68 in 3.1 mi WSW 25.3 mph - N/A   Drizzle
1:26 PM 51.8 °F - 46.4 °F 82% 29.68 in 6.2 mi WSW 26.5 mph - N/A Rain Light Rain
1:32 PM 51.8 °F - 46.4 °F 82% 29.68 in 6.2 mi WSW 25.3 mph - N/A   Overcast
1:39 PM 51.8 °F - 46.4 °F 82% 29.68 in 6.2 mi WSW 26.5 mph - N/A   Overcast
1:55 PM 51.8 °F - 46.4 °F 82% 29.68 in 6.2 mi WSW 27.6 mph - N/A   Mostly Cloudy
2:10 PM 51.8 °F - 46.4 °F 82% 29.68 in 6.2 mi WSW 26.5 mph - N/A   Mostly Cloudy
2:11 PM 51.8 °F - 46.4 °F 82% 29.68 in 6.2 mi WSW 26.5 mph - N/A   Mostly Cloudy
2:16 PM 51.8 °F - 46.4 °F 82% 29.65 in 6.2 mi WSW 25.3 mph - N/A   Overcast
2:25 PM 51.8 °F - 46.4 °F 82% 29.65 in 6.2 mi West 26.5 mph - N/A   Mostly Cloudy
2:31 PM 50.0 °F - 44.6 °F 82% 29.65 in 4.3 mi West 28.8 mph - N/A Rain Light Rain
2:32 PM 50.0 °F - 44.6 °F 82% 29.65 in 3.1 mi West 29.9 mph - N/A Rain Light Rain
2:36 PM 50.0 °F - 44.6 °F 82% 29.65 in 5.6 mi West 27.6 mph - N/A Rain Light Rain Showers
2:45 PM 50.0 °F - 46.4 °F 87% 29.65 in 6.2 mi WSW 24.2 mph - N/A   Mostly Cloudy
2:55 PM 51.8 °F - 46.4 °F 82% 29.65 in 6.2 mi West 26.5 mph - N/A   Mostly Cloudy
3:02 PM 51.8 °F - 46.4 °F 82% 29.65 in 6.2 mi West 26.5 mph - N/A   Mostly Cloudy
3:12 PM 51.8 °F - 46.4 °F 82% 29.65 in 6.2 mi West 26.5 mph - N/A   Mostly Cloudy
3:13 PM 51.8 °F - 46.4 °F 82% 29.65 in 6.2 mi West 26.5 mph - N/A   Mostly Cloudy
3:17 PM 51.8 °F - 46.4 °F 82% 29.65 in 6.2 mi West 26.5 mph - N/A   Mostly Cloudy
3:25 PM 51.8 °F - 46.4 °F 82% 29.65 in 6.2 mi West 26.5 mph - N/A   Mostly Cloudy
3:32 PM 51.8 °F - 46.4 °F 82% 29.65 in 6.2 mi West 26.5 mph - N/A   Overcast
3:37 PM 51.8 °F - 46.4 °F 82% 29.65 in 6.2 mi West 26.5 mph - N/A   Mostly Cloudy
3:45 PM 51.8 °F - 46.4 °F 82% 29.65 in 6.2 mi West 27.6 mph - N/A   Mostly Cloudy
3:55 PM 51.8 °F - 46.4 °F 82% 29.65 in 6.2 mi West 26.5 mph - N/A   Mostly Cloudy
3:56 PM 51.8 °F - 46.4 °F 82% 29.65 in 6.2 mi West 25.3 mph - N/A   Overcast
4:12 PM 51.8 °F - 46.4 °F 82% 29.65 in 6.2 mi West 26.5 mph - N/A   Overcast
4:16 PM 51.8 °F - 46.4 °F 82% 29.65 in 6.2 mi West 26.5 mph - N/A   Overcast
4:25 PM 51.8 °F - 46.4 °F 82% 29.65 in 6.2 mi West 25.3 mph - N/A   Overcast
4:36 PM 50.0 °F - 46.4 °F 87% 29.65 in 6.2 mi West 23.0 mph - N/A   Overcast
4:43 PM 50.0 °F - 46.4 °F 87% 29.65 in 6.2 mi WNW 23.0 mph - N/A   Overcast
4:55 PM 50.0 °F - 44.6 °F 82% 29.65 in 6.2 mi WNW 25.3 mph - N/A   Overcast
5:25 PM 50.0 °F - 42.8 °F 76% 29.65 in 6.2 mi West 20.7 mph - N/A   Overcast
5:55 PM 50.0 °F - 44.6 °F 82% 29.65 in 6.2 mi West 21.9 mph - N/A   Overcast
6:25 PM 50.0 °F - 44.6 °F 82% 29.62 in 6.2 mi West 23.0 mph - N/A   Mostly Cloudy
6:55 PM 50.0 °F - 44.6 °F 82% 29.62 in 6.2 mi West 20.7 mph - N/A   Overcast
7:04 PM 51.8 °F - 44.6 °F 76% 29.62 in 6.2 mi West 19.6 mph - N/A   Mostly Cloudy
7:08 PM 51.8 °F - 44.6 °F 76% 29.62 in 6.2 mi West 19.6 mph - N/A   Mostly Cloudy
7:25 PM 50.0 °F - 44.6 °F 82% 29.62 in 6.2 mi West 21.9 mph - N/A   Overcast
7:30 PM 50.0 °F - 44.6 °F 82% 29.62 in 6.2 mi West 21.9 mph - N/A   Mostly Cloudy
7:37 PM 50.0 °F - 44.6 °F 82% 29.62 in 6.2 mi WNW 21.9 mph - N/A Rain Light Rain
7:43 PM 48.2 °F - 44.6 °F 87% 29.62 in 4.3 mi NW 23.0 mph - N/A   Haze
7:49 PM 48.2 °F - 44.6 °F 87% 29.62 in - NW 20.7 mph - N/A Rain Rain
7:55 PM 48.2 °F - 44.6 °F 87% 29.62 in 3.7 mi WNW 17.3 mph - N/A Rain Light Rain Showers
8:01 PM 48.2 °F - 44.6 °F 87% 29.62 in 5.6 mi WNW 15.0 mph - N/A   Light Drizzle
8:02 PM 48.2 °F - 46.4 °F 93% 29.62 in 4.3 mi West 13.8 mph - N/A Rain Light Rain
8:09 PM 50.0 °F - 46.4 °F 87% 29.62 in 5.0 mi West 13.8 mph - N/A Rain Light Rain
8:17 PM 50.0 °F - 46.4 °F 87% 29.62 in 6.2 mi West 16.1 mph - N/A   Mostly Cloudy
8:25 PM 50.0 °F - 46.4 °F 87% 29.62 in 6.2 mi West 18.4 mph - N/A   Mostly Cloudy
8:32 PM 50.0 °F - 46.4 °F 87% 29.62 in 6.2 mi WNW 18.4 mph - N/A   Mostly Cloudy
8:39 PM 50.0 °F - 46.4 °F 87% 29.62 in 6.2 mi WNW 17.3 mph - N/A   Mostly Cloudy
8:44 PM 50.0 °F - 46.4 °F 87% 29.62 in 6.2 mi WNW 18.4 mph - N/A   Mostly Cloudy
8:50 PM 50.0 °F - 46.4 °F 87% 29.62 in 6.2 mi WNW 18.4 mph - N/A   Mostly Cloudy
8:55 PM 50.0 °F - 46.4 °F 87% 29.62 in 6.2 mi WNW 18.4 mph - N/A   Mostly Cloudy
8:59 PM 50.0 °F - 46.4 °F 87% 29.62 in 6.2 mi WNW 18.4 mph - N/A Rain Light Rain
9:10 PM 50.0 °F - 46.4 °F 87% 29.62 in 6.2 mi WNW 18.4 mph - N/A   Mostly Cloudy
9:25 PM 50.0 °F - 44.6 °F 82% 29.62 in 6.2 mi WNW 20.7 mph - N/A   Mostly Cloudy
9:26 PM 50.0 °F - 44.6 °F 82% 29.62 in 6.2 mi WNW 19.6 mph - N/A   Mostly Cloudy
9:35 PM 50.0 °F - 44.6 °F 82% 29.62 in 6.2 mi WNW 19.6 mph - N/A   Mostly Cloudy
9:39 PM 50.0 °F - 44.6 °F 82% 29.62 in 6.2 mi WNW 18.4 mph - N/A   Overcast
9:44 PM 50.0 °F - 44.6 °F 82% 29.62 in 6.2 mi WNW 18.4 mph - N/A Rain Light Rain
9:48 PM 48.2 °F - 44.6 °F 87% 29.62 in 6.2 mi NW 19.6 mph - N/A   Light Drizzle
9:55 PM 48.2 °F - 44.6 °F 87% 29.62 in 6.2 mi NNW 20.7 mph - N/A   Drizzle
9:59 PM 48.2 °F - 44.6 °F 87% 29.62 in 6.2 mi NNW 18.4 mph - N/A   Mostly Cloudy
10:04 PM 48.2 °F - 44.6 °F 87% 29.62 in 6.2 mi NNW 15.0 mph - N/A Rain Light Rain
10:05 PM 48.2 °F - 44.6 °F 87% 29.62 in 5.6 mi NNW 15.0 mph - N/A   Light Drizzle
10:16 PM 48.2 °F - 44.6 °F 87% 29.62 in 6.2 mi North 20.7 mph - N/A   Mostly Cloudy
10:25 PM 48.2 °F - 44.6 °F 87% 29.62 in 6.2 mi North 20.7 mph - N/A Rain Light Rain
10:32 PM 48.2 °F - 44.6 °F 87% 29.62 in 6.2 mi NNW 20.7 mph - N/A Rain Light Rain
10:45 PM 48.2 °F - 44.6 °F 87% 29.62 in 6.2 mi North 20.7 mph - N/A   Overcast
10:47 PM 48.2 °F - 44.6 °F 87% 29.62 in 6.2 mi North 19.6 mph - N/A   Overcast
10:55 PM 48.2 °F - 44.6 °F 87% 29.62 in 6.2 mi North 18.4 mph - N/A   Overcast
10:59 PM 48.2 °F - 44.6 °F 87% 29.62 in 6.2 mi North 18.4 mph - N/A   Drizzle
11:07 PM 48.2 °F - 44.6 °F 87% 29.62 in 6.2 mi North 18.4 mph - N/A   Light Drizzle
11:20 PM 48.2 °F - 42.8 °F 82% 29.62 in 6.2 mi North 19.6 mph - N/A   Mostly Cloudy
11:25 PM 48.2 °F - 42.8 °F 82% 29.62 in 6.2 mi North 20.7 mph - N/A Rain Light Drizzle
11:35 PM 48.2 °F - 42.8 °F 82% 29.62 in 6.2 mi North 19.6 mph - N/A   Overcast
11:42 PM 48.2 °F - 41.0 °F 76% 29.62 in 6.2 mi North 19.6 mph - N/A   Mostly Cloudy
11:55 PM 48.2 °F - 41.0 °F 76% 29.62 in 6.2 mi North 18.4 mph - N/A   Overcast